Welcome to the New NWS' Forecast!
Most changes are behind the scenes, but click here for differences you might notice.
Latest weather observations around

Eufaula Municipal Airport (KEUF)

Using English Units (Switch to International System of Units)
Date/ Time (CST) Wind (mph) Vis. (mi) Weather Sky Cond. Temp (°F) Rel. Humidity Wind Chill (°F) Heat Index (°F) Pressure Precip. (in)
Air Dwpt 6 hour Altimeter (inHg) Sea level (inHg) 1 hr 3 hr 6 hr
Max Min
Nov 18 01:58 Calm 10 Clear CLR 43 42     97%     30.03 30.02      
Nov 18 00:58 Calm 10 Clear CLR 42 41     96%     30.03 30.02      
Nov 17 23:58 Calm 8 Clear CLR 43 42     97%     30.06 30.05      
Nov 17 22:58 Calm 10 Clear CLR 43 42     97%     30.06 30.06      
Nov 17 21:58 Calm 10 Clear CLR 43 42     97%     30.08 30.07      
Nov 17 20:58 Calm 10 Clear CLR 43 42     97%     30.08 30.08      
Nov 17 19:58 Calm 10 Clear CLR 43 42     97%     30.1 30.09      
Nov 17 18:58 Calm 10 Clear CLR 45 43     93%     30.09 30.09      
Nov 17 17:58 Calm 10 Clear CLR 49 45     86%     30.08 30.08      
Nov 17 16:58 Calm 10 Clear CLR 53 46     77%     30.07 30.06      
Nov 17 15:58 Calm 10 Clear CLR 66 42     42%     30.06 30.05      
Nov 17 14:58 Calm 10 Clear CLR 70 34     26%     30.07 30.06      
Nov 17 13:58 E 3 10 Clear CLR 71 39     31%   69 30.08 30.07      
Nov 17 12:58 Calm 10 Clear CLR 69 42     38%     30.09 30.09      
Nov 17 11:58 N 3 10 Clear CLR 67 44     44%     30.11 30.11      
Nov 17 10:58 5 10 Clear CLR 65 42     43%     30.14 30.14      
Nov 17 09:58 ESE 3 10 Clear CLR 59 47     64%     30.17 30.17      
Nov 17 08:58 NNW 3 8 Clear CLR 52 48     86%     30.19 30.19      
Nov 17 08:21 Calm 4 Fog/Mist FEW002 47 47     100%     30.19        
Nov 17 08:14 Calm 2 Fog/Mist SCT002 47 47     100%     30.19        
Nov 17 08:02 ENE 3 1 Fog/Mist VV002 47 46     97% 46   30.19        
Nov 17 07:58 Calm 0.75 Fog/Mist VV002 47 46     97%     30.19 30.18      
Nov 17 06:58 Calm 0.25 Fog VV002 42 42     100%     30.17 30.16      
Nov 17 05:58 Calm 0.25 Fog VV002 41 41     100%     30.15 30.15      
Nov 17 04:58 Calm 0.25 Fog VV002 43 42     97%     30.12 30.12      
Nov 17 04:12 Calm 0.5 Fog VV002 42 41     96%     30.12        
Nov 17 04:04 Calm 1.75 Fog/Mist OVC001 41 41     100%     30.13        
Nov 17 03:58 Calm 4 Fog/Mist BKN001 41 41     100%     30.13 30.12      
Nov 17 03:50 Calm 4 Fog/Mist BKN001 41 40     96%     30.13        
Nov 17 03:47 Calm 1.25 Fog/Mist SCT001 41 40     96%     30.13        
Nov 17 03:38 Calm 0.5 Fog VV002 41 41     100%     30.12        
Nov 17 03:32 Calm 1.75 Fog/Mist CLR 42 41     96%     30.13        
Nov 17 02:58 Calm 4 Fog/Mist CLR 43 42     97%     30.13 30.12      
Nov 17 01:58 Calm 5 Fog/Mist CLR 43 42     97%     30.13 30.12      
Nov 17 00:58 Calm 5 Fog/Mist SCT003 44 43     96%     30.13 30.12      
Nov 17 00:53 Calm 5 Fog/Mist BKN003 45 44     97%     30.13        
Nov 17 00:29 Calm 4 Fog/Mist FEW003 45 44     97%     30.13        
Nov 16 23:58 Calm 6 Fog/Mist CLR 45 45     100%     30.13 30.12      
Nov 16 23:52 Calm 5 Fog/Mist CLR 45 44     97%     30.13        
Nov 16 23:44 SE 3 2.5 Fog/Mist CLR 46 45     96% 45   30.13        
Nov 16 22:58 Calm 6 Fog/Mist CLR 47 46     97%     30.13 30.12      
Nov 16 21:58 Calm 5 Fog/Mist CLR 48 47     96%     30.12 30.11      
Nov 16 20:58 Calm 10 Clear CLR 50 49     96%     30.11 30.11      
Nov 16 19:58 Calm 10 Clear CLR 52 50     93%     30.11 30.1      
Nov 16 18:58 Calm 10 Clear CLR 53 51     93%     30.1 30.1      
Nov 16 17:58 NW 3 10 Clear CLR 56 53     90%     30.09 30.09      
Nov 16 16:58 Calm 10 Clear CLR 61 54     78%     30.08 30.08      
Nov 16 15:58 6 10 Clear CLR 68 53     59%     30.07 30.06      
Nov 16 14:58 3 10 Clear CLR 71 54     55%   70 30.06 30.06      
Nov 16 13:58 3 10 Clear CLR 71 53     53%   70 30.06 30.06      
Nov 16 12:58 NW 6 10 Clear CLR 71 53     53%   70 30.08 30.07      
Nov 16 11:58 NW 5 10 Clear CLR 69 52     54%     30.1 30.09      
Nov 16 10:58 6 10 Clear CLR 67 50     55%     30.13 30.13      
Nov 16 09:58 5 10 Clear CLR 64 48     56%     30.16 30.15      
Nov 16 08:58 Calm 10 Clear CLR 58 48     70%     30.17 30.16      
Nov 16 07:58 Calm 10 Clear CLR 52 48     86%     30.16 30.16      
Nov 16 06:58 Calm 4 Fog/Mist CLR 44 43     96%     30.15 30.15      
Nov 16 06:33 Calm 3 Fog/Mist CLR 41 40     96%     30.15        
Nov 16 06:20 Calm 2.5 Fog/Mist FEW001 40 40     100%     30.15        
Nov 16 06:12 Calm 2.5 Fog/Mist CLR 41 40     96%     30.14        
Nov 16 05:58 Calm 3 Fog/Mist CLR 41 40     96%     30.14 30.14      
Nov 16 05:02 Calm 3 Fog/Mist SCT001 42 41     96%     30.12        
Nov 16 04:58 Calm 3 Fog/Mist BKN001 42 41     96%     30.12 30.11      
Nov 16 04:51 Calm 3 Fog/Mist BKN001 42 41     96%     30.12        
Nov 16 04:45 Calm 2 Fog/Mist OVC002 42 41     96%     30.12        
Nov 16 04:27 Calm 1.75 Fog/Mist OVC001 42 41     96%     30.11        
Nov 16 03:58 Calm 4 Fog/Mist BKN001 42 41     96%     30.11 30.11      
Nov 16 03:51 Calm 3 Fog/Mist BKN002 41 40     96%     30.11        
Nov 16 03:31 Calm 3 Fog/Mist FEW002 41 40     96%     30.11        
Nov 16 02:58 Calm 3 Fog/Mist CLR 41 40     96%     30.1 30.1      
Nov 16 01:58 Calm 3 Fog/Mist SCT002 42 41     96%     30.1 30.1      
Nov 16 01:51 Calm 3 Fog/Mist BKN002 42 41     96%     30.1        
Nov 16 01:25 Calm 2 Fog/Mist OVC002 42 41     96%     30.11        
Nov 16 01:14 Calm 1.5 Fog/Mist BKN002 42 40     92%     30.1        
Nov 16 01:07 Calm 2.5 Fog/Mist BKN002 42 41     96%     30.1        
Nov 16 00:58 Calm 2.5 Fog/Mist FEW002 41 41     100%     30.1 30.1      
Nov 16 00:50 Calm 2.5 Fog/Mist CLR 42 41     96%     30.11        
Nov 15 23:58 Calm 4 Fog/Mist FEW120 44 42     93%     30.12 30.11      
Nov 15 22:58 Calm 6 Fog/Mist SCT120 44 42     93%     30.13 30.12      
Nov 15 21:58 Calm 6 Fog/Mist CLR 44 42     93%     30.12 30.12      
Nov 15 20:58 Calm 8 Clear CLR 45 44     97%     30.13 30.12      
Nov 15 19:58 Calm 8 Clear CLR 46 45     96%     30.11 30.11      
Nov 15 18:58 Calm 10 Clear CLR 46 45     96%     30.12 30.12      
Nov 15 17:58 Calm 10 Clear CLR 48 46     93%     30.1 30.1      
Nov 15 16:58 Calm 10 Clear CLR 51 47     86%     30.09 30.09      
Nov 15 15:58 Calm 10 Clear CLR 60 44     55%     30.08 30.08      
Nov 15 14:58 Calm 10 Clear CLR 61 43     52%     30.09 30.09      
Nov 15 13:58 3 10 Clear CLR 63 43     48%     30.09 30.08      
Nov 15 12:58 5 10 Clear CLR 61 43     52%     30.1 30.09      
Nov 15 11:58 ESE 5 10 Clear CLR 60 42     51%     30.12 30.11      
Nov 15 10:58 6 10 Clear CLR 59 42     53%     30.17 30.16      
Nov 15 09:58 E 9 10 Clear CLR 58 42     55%     30.19 30.18      
Nov 15 08:58 E 9 10 Clear CLR 55 42     62%     30.19 30.19      
Nov 15 07:58 E 7 10 Clear CLR 50 43     77% 47   30.2 30.19      
Nov 15 06:58 Calm 9 Clear CLR 45 43     93%     30.19 30.19      
Nov 15 05:58 N 3 9 Clear   43 41     93% 41   30.18 30.17      
Nov 15 04:58 Calm 10 Clear CLR 42 41     96%     30.16 30.16      
Nov 15 03:58 Calm 10 Clear CLR 43 42     97%     30.16 30.15      
Nov 15 02:58 Calm 10 Clear CLR 43 42     97%     30.16 30.16      
Jun 12 05:58 Calm 8 Clear CLR 72 70     93%   73 30.13 30.12      
Jun 11 16:58 S 7 10 Clear CLR 83 73     72%   89 30.08 30.07      
Jun 11 15:31 SSE 9 10 Clear   85 73     68%   92 30.12        
Jun 11 14:58 SSE 15 10 Cloudy FEW031 BKN042 OVC070 86 73     65%   93 30.12 30.11      
Jun 11 04:33 SE 5 10 Partly Cloudy SCT022 75 71     88%   76 30.08        
Jun 10 15:58 ESE 5 10 Mostly Clear FEW080 90 60     37%   90 30.03 30.02      
Jun 10 07:58 ESE 5 10 Clear CLR 75 65     71%   76 30.07 30.06      
Jun 09 16:58 6 10 Mostly Clear FEW080 87 61     42%   87 29.91 29.9      
Jun 09 11:58 5 10 Mostly Clear FEW050 84 60     44%   84 29.97 29.95      
Jun 09 08:58 Calm 10 Clear CLR 79 62     56%   79 29.97 29.96      
Jun 09 04:58 Calm 6 Fog/Mist CLR 61 59     93%     29.9 29.89      
Jun 09 01:58 Calm 7 Clear CLR 63 61     93%     29.88 29.86      
Jun 07 21:58 Calm 10 Clear CLR 70 65     84%     29.81 29.8      
Jun 07 12:05 NE 9 9 Light Rain FEW014 SCT024 OVC042 73 69     87%   74 29.76   0    
Jun 07 10:09 NNE 5 5 Light Rain and Fog/Mist FEW010 BKN020 OVC028 73 71     94%   74 29.75   0    
Jun 07 09:27 Calm 10 Cloudy BKN010 OVC015 74 70     87%   75 29.75        
Jun 07 08:58 5 10 Cloudy BKN010 OVC014 73 70     90%   74 29.74 29.73      
Jun 06 15:18 SE 8 10 Mostly Cloudy BKN024 BKN038 82 72     72%   87 29.69        
Notice The following observation data may not be complete
Jun 06 06:58   10 Cloudy OVC055          %              
Jun 06 02:12 Calm 10 Cloudy BKN006 OVC055 75 72     90%   76 29.78        
Jun 05 19:29 ESE 3 10 Mostly Cloudy BKN026 BKN032 79 72     79%   82 29.79